Other Public Products
Issued by NWS Grand Forks, ND

Home | Current Version | Previous Version | Graphics & Text | Print | Product List | Glossary On
Versions: 1 2 3 4 5 6 7 8 9 10 11 12 13 14 15 16 17 18 19 20 21 22 23 24 25 26 27 28 29 30 31 32 33 34 35 36 37 38 39 40 41 42 43 44 45 46 47 48 49 50
000
FPUS83 KFGF 271631
OPUFGF
PRAIRIE TO PINES WEATHER ROUNDUP
NATIONAL WEATHER SERVICE EASTERN NORTH DAKOTA/GRAND FORKS ND
1000 AM CST TUE JAN 27 2015

 **SATELLITE DATA USED TO AUGMENT SKY COVER AT AUTOMATED STATIONS**
 *****  WEATHER ACROSS EASTERN NORTH DAKOTA  *****

CITY           SKY/WX    TMP DP  RH WIND       PRES   REMARKS
GRAND FORKS    FOG       28  26  92 S12       30.04F VSB 1   WCI  18
GRAND FORKS AF CLOUDY    27  26  95 S12       30.03F FOG     WCI  16
GRAND CITY NWS NOT AVBL
BUXTON           N/A     27  26  99 SE9         N/A  WCI  18
DEVILS LAKE    SUNNY     30  28  93 S13       29.93F WCI  20
FARGO          CLOUDY    29  27  92 S14       30.08R FOG     WCI  18
WAHPETON ARPT  CLOUDY    30  28  93 S15       30.09S VSB 3/4 WCI  19
$$

 *****  WEATHER ACROSS CENTRAL AND WESTERN NORTH DAKOTA  *****

CITY           SKY/WX    TMP DP  RH WIND       PRES   REMARKS
JAMESTOWN      MOSUNNY   32  30  92 S12       29.96F WCI  23
BISMARCK       SUNNY     35  31  85 S6        29.91S
MINOT          MOSUNNY   33  30  88 S6        29.83F
MINOT AFB      MOSUNNY   30  30 100 S6        29.83F WCI  24
GARRISON         N/A     32  31  96 S6        29.85S
WILLISTON      MOSUNNY   33  30  88 S5        29.84S
DICKINSON      SUNNY     44  33  65 W8        29.84S
HETTINGER      MOSUNNY   43  34  70 W8        29.89S
$$

 *****  OTHER OBSERVATIONS NORTHEAST NORTH DAKOTA  *****

CITY           SKY/WX    TMP DP  RH WIND       PRES   REMARKS
WALHALLA         N/A     28  28 100 S10       29.98F WCI  19
LANGDON        PTSUNNY   32  30  93 S20       29.92F WCI  20
CAVALIER       CLOUDY    27  27 100 S13       30.00F FOG     WCI  16
GRAFTON        NOT AVBL
CANDO          FAIR      32  30  93 S15       29.92S WCI  22
FORT TOTTEN    NOT AVBL
ROLLA          FAIR      30  30 100 S14       29.88F WCI  20
RUGBY          FAIR      32  28  86 S15G21    29.87F WCI  22
 ***** THE ABOVE OBSERVATIONS ARE NON NWS ARE NOT QUALITY
        CONTROLLED AND MAY MIS-REPORT RAIN FOR SNOW...
$$

 *****  OTHER OBSERVATIONS SOUTHEAST NORTH DAKOTA *****

CITY           SKY/WX    TMP DP  RH WIND       PRES   REMARKS
COOPERSTOWN    NOT AVBL
VALLEY CITY    CLOUDY    28  28 100 S10       30.02R FOG     WCI  19
OAKES            N/A     32  32 100 SE9       30.01F WCI  24
GWINNER        CLOUDY    32  32 100 SE8       30.04S VSB 3/4 WCI  25
BUFFALO        NOT AVBL
WYNDMERE         N/A     28  28 100 SE9         N/A  WCI  20
 ***** THE ABOVE OBSERVATIONS ARE NON NWS ARE NOT QUALITY
       CONTROLLED AND MAY MIS-REPORT RAIN FOR SNOW...
$$

  *****  WEATHER ACROSS NORTHERN MINNESOTA  *****

CITY           SKY/WX    TMP DP  RH WIND       PRES   REMARKS
FLAG ISLAND    CLOUDY    21  21 100 S7        30.06R FOG     WCI  13
WARROAD        CLOUDY    23  19  86 S3        30.07S
ROSEAU         CLOUDY    25  21  86 SE5       30.06S FOG     WCI  19
HALLOCK        CLOUDY    27  25  93 S9        30.03F WCI  17
THF RVR FALLS  CLOUDY    27  25  93 S10       30.06R WCI  17
HALSTAD          N/A     28  27  96 S15         N/A  WCI  16
FOSSTON        CLOUDY    25  23  93 S8        30.06F WCI  16
BAUDETTE       CLOUDY    24  22  91 S8        30.07S WCI  15
WASKISH        CLOUDY    27  27 100 SE6       30.09R WCI  20
CROOKSTON      CLOUDY    27  27 100 S10       30.07F FOG     WCI  17
$$
  *****  WEATHER ACROSS CENTRAL AND WEST MINNESOTA  *****

CITY           SKY/WX    TMP DP  RH WIND       PRES   REMARKS
BEMIDJI        CLOUDY    26  25  97 S9        30.09R WCI  17
PARK RAPIDS    CLOUDY    28  25  88 S12       30.09R WCI  18
WADENA         CLOUDY    27  27 100 S8        30.10F WCI  18
DETROIT LAKES  CLOUDY    28  28 100 S10       30.09R WCI  19
MOORHEAD       CLOUDY    28  28 100 S12       30.09S FOG     WCI  18
FERGUS FALLS   CLOUDY    28  28 100 S10       30.12R FOG     WCI  19
ELBOW LAKE     CLOUDY    28  28 100 SE12      30.09R FOG     WCI  18
MORRIS MN      CLOUDY    30  28  93 SE14      30.10R FOG     WCI  20
STAPLES        CLOUDY    28  25  86 S7        30.11S WCI  21
WHEATON        FOG       27  27 100 SE13      30.11S VSB 3/4 WCI  16
$$
  *****  WEATHER ELSEWHERE ACROSS MINNESOTA  *****

CITY           SKY/WX    TMP DP  RH WIND       PRES   REMARKS
DULUTH         CLOUDY    26  22  84 S5        30.12R WCI  20
INTRNTL FALLS  CLOUDY    24  21  88 S6        30.10R WCI  17
ELY            CLOUDY    25  21  86 SW6       30.11R WCI  18
CLOQUET        CLOUDY    27  21  80 S5        30.13R WCI  21
BRAINERD       CLOUDY    30  25  81 SE6       30.12R WCI  24
HIBBING        CLOUDY    25  21  85 S3        30.11R
ALEXANDRIA     CLOUDY    28  26  92 SE10      30.10S WCI  19
SAINT CLOUD    CLOUDY    31  25  78 S6        30.14R
MINNEAPOLIS    CLOUDY    32  24  72 CALM      30.17R
$$

  *****  WEATHER ACROSS SOUTH DAKOTA  *****

CITY           SKY/WX    TMP DP  RH WIND       PRES   REMARKS
SIOUX FALLS    FOG       30  29  96 SE10      30.09S VSB 1/2 WCI  21
BROOKINGS      NOT AVBL
WATERTOWN      SUNNY     31  29  92 SE8       30.04S WCI  23
HURON          SUNNY     35  32  88 SE15G21   30.02F
SISSETON         N/A     29  29 100 S12       30.06S WCI  19
ABERDEEN       SUNNY     34  31  88 S12       30.02F
MITCHELL       SUNNY     36  33  89 SE14      30.05F
PIERRE         SUNNY     36  31  82 SE7       29.95S
MOBRIDGE       SUNNY     36  31  82 S12       29.90F
RAPID CITY     SUNNY     58  27  30 W8        29.96S
$$

  *****  SOME WEATHER IN NEARBY STATES *****

CITY           SKY/WX    TMP DP  RH WIND       PRES   REMARKS
GLASGOW MT     PTCLDY    33  30  88 SE5       29.85R
GREAT FALLS MT CLOUDY    50  28  42 S15       29.90S
CHEYENNE WY    SUNNY     57  18  21 W13       30.16S
SCOTTSBLUFF NE   N/A    N/A N/A N/A MISG      30.08S
OMAHA NE       MOSUNNY   38  34  85 SE3       30.15R
DES MOINES IA  MOSUNNY   39  30  70 E5        30.17R
DAVENPORT IA   CLOUDY    28  22  78 NE12      30.18R WCI  18
CHICAGO IL     CLOUDY    28  20  71 NE8       30.14R WCI  20
EAU CLAIRE WI  CLOUDY    28  22  78 CALM      30.17R
LA CROSSE WI   CLOUDY    30  21  69 NE8       30.18R WCI  22
$$

  *****  SOME NATIONAL WEATHER *****

CITY           SKY/WX    TMP DP  RH WIND       PRES   REMARKS
LA GUARDIA NY  LGT SNOW  24  17  74 NW20G25   29.68S WCI  10
RALEIGH NC     PTSUNNY   34  17  50 VRB7      29.84R
ATLANTA GA     MOSUNNY   45  32  60 NW17G25   29.94R
NEW ORLEANS LA MOSUNNY   61  41  47 NW8       30.15R
OKLAHOMA CITY  SUNNY     58  34  40 CALM      30.19R
ALBUQUERQUE NM MOSUNNY   36  27  69 CALM      30.38S
SALT LAKE CITY PTSUNNY   33  30  88 SE5       30.21R
LOS ANGELES CA PTSUNNY   60  54  80 NE3       30.20R
BOISE ID       FOG       28  28 100 CALM      30.11S VSB 1/2
SEATTLE WA     CLOUDY    49  46  90 S3        30.05R
$$

*** WEATHER ACROSS MANITOBA...SASKATCHEWAN AND ONTARIO ***
                ***ONTARIO***

CITY           SKY/WX    TMP DP  RH WIND       PRES   REMARKS
GERALDTON      FLURRIES  19  18  93 S6        30.12R WCI  11
THUNDER BAY    CLOUDY    23  21  93 W6        30.16R WCI  16
SIOUX LOOKOUT  CLOUDY    19  18  93 SW9       30.07R WCI   9
TORONTO        PTSUNNY   14   5  67 N10       30.08S WCI   1
BIG TROUT LK   FLURRIES  19  18  93 SW13G18   29.89R WCI   7
PICKLE LAKE    CLOUDY    19  16  86 SW13G20   30.01R WCI   7
DRYDEN         CLOUDY    18  18 100 SW10      30.07R WCI   6
KENORA         FOG       21  19  93 S9        30.05R VSB 1/2 WCI  11
$$
                *** MANITOBA***

CITY           SKY/WX    TMP DP  RH WIND       PRES   REMARKS
BRANDON        PTSUNNY   28  27  93 E7        29.87S WCI  21
DAUPHIN        CLOUDY    32  28  86 SE5       29.85R
ISLAND LAKE    FLURRIES  25  25 100 SW8       29.87R WCI  16
PILOT MOUND      N/A     30  28  93 S14         N/A  WCI  20
THE PAS        CLOUDY    19  18  93 W2        29.89R
THOMPSON       MOCLDY    10   5  79 NW13G21   29.90R WCI  -5
WINNIPEG       CLOUDY    25  23  93 S16G23    29.99F WCI  12
LYNN LAKE      CLOUDY     3  -2  78 NW15G21   29.95R WCI -15
CHURCHILL      MOCLDY     3  -2  78 NW35G40   29.79R BLWGSNOWWCI -23
GILLAM         FLURRIES  18  10  73 NW16G23   29.82R WCI   3
$$
                ***SASKATCHEWAN***

CITY           SKY/WX    TMP DP  RH WIND       PRES   REMARKS
ESTEVAN        CLOUDY    30  28  93 SE5       29.79F
KINDERSLEY     MOCLDY    28  25  86 NE10      29.79F WCI  19
LLOYDMINSTER   MOCLDY    30  30 100 N3        29.82R
PRINCE ALBERT  CLOUDY    28  28 100 NE6       29.85S WCI  22
REGINA         MOCLDY    27  25  93 E8        29.78R WCI  18
YORKTON        CLOUDY    30  28  93 NE3       29.82R



USA.gov is the U.S. government's official web portal to all federal, state and local government web resources and services.